Project,Study,Ord_Occ,Event_Num,Cast_ID,Date_Time_UTC,Date_Time_PST,Lat_Dec,Lon_Dec,Sta_ID,Line,Sta,Depth,Pressure,PrQ,Temp1,Temp1Q,Temp2,Temp2Q,TempAve,Salt1,Salt1Q,Salt1_Corr,Salt2,Salt2Q,Salt2_Corr,SaltAve_Corr,Ox1,Ox1Q,Ox1_CruiseCorr,Ox1_StaCorr,Ox2,Ox2Q,Ox2_CruiseCorr,Ox2_StaCorr,OxAve_StaCorr,Ox1uM,Ox1uM_CruiseCorr,Ox1uM_StaCorr,Ox2uM,Ox2uM_CruiseCorr,Ox2uM_StaCorr,OxAveuM_StaCorr,FluorV,FluorQ,EstChl_CruiseCorr,EstChl_StaCorr,ISUSV,ISUSQ,EstNO3_CruiseCorr,EstNO3_StaCorr,SigThetaTS1,SigThetaTS1Q,SigThetaTS2,SigThetaTS2Q,BAT,XMiss,TransQ,pH,pHQ,SPAR,SPARQ,PAR,PARQ,PoT1,PoT2,DynHt,SVA,OxSat1,OxSat2,BTL_Depth,BTL_Temp,SaltB,OxB,OxBuM,Chl-a,Phaeo,NO3,NO2,NH4,PO4,SIL
CalCOFI,2101RL,036,,2101_036u,23-Jan-2021 19:19:04,23-Jan-2021 11:19:04,33.65445,-118.97186,086.7 040.0,086.7,040.0,516.000,520.346,,6.4555,,6.4556,,6.4556,34.3063,,34.3121,34.3033,,34.3053,34.3087,0.3206,,0.3354,0.3237,0.3252,,0.3434,0.3290,0.3264,13.941,14.8536,14.1580,14.143,15.9550,14.3910,14.2745,0.0328,,,, ,, , ,26.9519,,26.9495,,0.7142,83.6472,,,,7.1645E+02,,1.0000E-12,,6.4083,6.4084,0.8975,117.178,4.668,4.736,,,,,,,,,,,,
CalCOFI,2101RL,036,,2101_036u,23-Jan-2021 19:19:08,23-Jan-2021 11:19:08,33.65445,-118.97185,086.7 040.0,086.7,040.0,515.000,519.337,,6.4565,,6.4572,,6.4569,34.3063,,34.3121,34.3032,,34.3052,34.3087,0.3206,,0.3354,0.3237,0.3267,,0.3450,0.3306,0.3272,13.941,14.8536,14.1580,14.210,15.9550,14.4625,14.3103,0.0325,,,, ,, , ,26.9517,,26.9492,,0.7146,83.6387,,,,7.1748E+02,,1.0000E-12,,6.4094,6.4101,0.8975,117.180,4.668,4.758,515,,34.2984,0.345,15.02,,,,,,,
CalCOFI,2101RL,036,,2101_036u,23-Jan-2021 19:19:10,23-Jan-2021 11:19:10,33.65446,-118.97184,086.7 040.0,086.7,040.0,514.000,518.327,,6.4564,,6.4570,,6.4567,34.3063,,34.3121,34.3032,,34.3052,34.3087,0.3211,,0.3360,0.3242,0.3292,,0.3476,0.3333,0.3288,13.966,14.8798,14.1843,14.316,15.9828,14.5757,14.3800,0.0330,,,, ,, , ,26.9517,,26.9492,,0.7144,83.6430,,,,7.1753E+02,,1.0000E-12,,6.4095,6.4100,0.8975,117.163,4.676,4.794,,,,,,,,,,,,
CalCOFI,2101RL,036,,2101_036u,23-Jan-2021 19:19:11,23-Jan-2021 11:19:11,33.65446,-118.97184,086.7 040.0,086.7,040.0,513.000,517.317,,6.4561,,6.4569,,6.4565,34.3063,,34.3121,34.3031,,34.3051,34.3086,0.3207,,0.3355,0.3238,0.3217,,0.3397,0.3253,0.3246,13.948,14.8610,14.1654,13.991,15.9628,14.2288,14.1971,0.0325,,,, ,, , ,26.9517,,26.9491,,0.7145,83.6415,,,,7.1863E+02,,1.0000E-12,,6.4092,6.4100,0.8975,117.147,4.670,4.685,,,,,,,,,,,,
CalCOFI,2101RL,036,,2101_036u,23-Jan-2021 19:19:12,23-Jan-2021 11:19:12,33.65446,-118.97184,086.7 040.0,086.7,040.0,512.000,516.308,,6.4594,,6.4597,,6.4596,34.3061,,34.3119,34.3031,,34.3051,34.3085,0.3212,,0.3361,0.3243,0.3287,,0.3471,0.3327,0.3285,13.971,14.8850,14.1896,14.294,15.9884,14.5522,14.3709,0.0331,,,, ,, , ,26.9512,,26.9488,,0.7145,83.6415,,,,7.1637E+02,,1.0000E-12,,6.4126,6.4129,0.8975,117.191,4.678,4.787,,,,,,,,,,,,
CalCOFI,2101RL,036,,2101_036u,23-Jan-2021 19:19:14,23-Jan-2021 11:19:14,33.65446,-118.97184,086.7 040.0,086.7,040.0,511.000,515.298,,6.4623,,6.4617,,6.4620,34.3060,,34.3118,34.3029,,34.3049,34.3084,0.3215,,0.3364,0.3246,0.3232,,0.3413,0.3269,0.3258,13.984,14.8987,14.2033,14.057,16.0028,14.2992,14.2513,0.0334,,,, ,, , ,26.9507,,26.9483,,0.7149,83.6335,,,,7.1690E+02,,1.0000E-12,,6.4156,6.4150,0.8975,117.224,4.683,4.707,,,,,,,,,,,,
CalCOFI,2101RL,036,,2101_036u,23-Jan-2021 19:19:16,23-Jan-2021 11:19:16,33.65446,-118.97184,086.7 040.0,086.7,040.0,510.000,514.288,,6.4626,,6.4649,,6.4638,34.3060,,34.3118,34.3027,,34.3047,34.3083,0.3242,,0.3392,0.3274,0.3278,,0.3462,0.3318,0.3296,14.099,15.0190,14.3243,14.256,16.1307,14.5116,14.4180,0.0338,,,, ,, , ,26.9506,,26.9477,,0.7145,83.6420,,,,7.2048E+02,,1.0000E-12,,6.4160,6.4183,0.8975,117.219,4.722,4.774,,,,,,,,,,,,
CalCOFI,2101RL,036,,2101_036u,23-Jan-2021 19:19:17,23-Jan-2021 11:19:17,33.65446,-118.97184,086.7 040.0,086.7,040.0,509.000,513.279,,6.4638,,6.4646,,6.4642,34.3058,,34.3116,34.3027,,34.3047,34.3082,0.3269,,0.3420,0.3303,0.3280,,0.3464,0.3320,0.3312,14.215,15.1405,14.4464,14.263,16.2597,14.5191,14.4828,0.0328,,,, ,, , ,26.9503,,26.9478,,0.7145,83.6415,,,,7.2237E+02,,1.0000E-12,,6.4173,6.4181,0.8975,117.234,4.760,4.777,,,,,,,,,,,,
CalCOFI,2101RL,036,,2101_036u,23-Jan-2021 19:19:18,23-Jan-2021 11:19:18,33.65446,-118.97184,086.7 040.0,086.7,040.0,508.000,512.269,,6.4706,,6.4703,,6.4705,34.3053,,34.3111,34.3023,,34.3043,34.3077,0.3254,,0.3405,0.3287,0.3286,,0.3470,0.3326,0.3307,14.150,15.0724,14.3780,14.290,16.1874,14.5479,14.4630,0.0317,,,, ,, , ,26.9490,,26.9467,,0.7145,83.6415,,,,7.2194E+02,,1.0000E-12,,6.4241,6.4239,0.8975,117.345,4.740,4.786,,,,,,,,,,,,
CalCOFI,2101RL,036,,2101_036u,23-Jan-2021 19:19:19,23-Jan-2021 11:19:19,33.65446,-118.97184,086.7 040.0,086.7,040.0,507.000,511.259,,6.4722,,6.4723,,6.4723,34.3053,,34.3111,34.3022,,34.3042,34.3077,0.3312,,0.3465,0.3348,0.3252,,0.3434,0.3290,0.3319,14.403,15.3373,14.6442,14.141,16.4688,14.3889,14.5166,0.0330,,,, ,, , ,26.9488,,26.9464,,0.7145,83.6415,,,,7.1777E+02,,1.0000E-12,,6.4259,6.4259,0.8975,117.355,4.824,4.737,,,,,,,,,,,,
CalCOFI,2101RL,036,,2101_036u,23-Jan-2021 19:19:20,23-Jan-2021 11:19:20,33.65446,-118.97184,086.7 040.0,086.7,040.0,506.000,510.250,,6.4760,,6.4743,,6.4752,34.3052,,34.3110,34.3022,,34.3042,34.3076,0.3301,,0.3454,0.3336,0.3358,,0.3547,0.3403,0.3370,14.356,15.2881,14.5948,14.603,16.4165,14.8821,14.7385,0.0339,,,, ,, , ,26.9482,,26.9460,,0.7145,83.6415,,,,7.1877E+02,,1.0000E-12,,6.4297,6.4280,0.8975,117.401,4.809,4.892,,,,,,,,,,,,
CalCOFI,2101RL,036,,2101_036u,23-Jan-2021 19:19:21,23-Jan-2021 11:19:21,33.65446,-118.97184,086.7 040.0,086.7,040.0,505.000,509.240,,6.4793,,6.4787,,6.4790,34.3049,,34.3107,34.3017,,34.3037,34.3072,0.3276,,0.3428,0.3310,0.3316,,0.3502,0.3358,0.3334,14.246,15.1729,14.4790,14.423,16.2942,14.6899,14.5845,0.0330,,,, ,, , ,26.9475,,26.9451,,0.7145,83.6415,,,,7.2198E+02,,1.0000E-12,,6.4331,6.4325,0.8975,117.457,4.772,4.832,,,,,,,,,,,,
CalCOFI,2101RL,036,,2101_036u,23-Jan-2021 19:19:22,23-Jan-2021 11:19:22,33.65446,-118.97184,086.7 040.0,086.7,040.0,504.000,508.230,,6.4806,,6.4812,,6.4809,34.3047,,34.3105,34.3017,,34.3037,34.3071,0.3275,,0.3427,0.3309,0.3274,,0.3457,0.3313,0.3311,14.242,15.1687,14.4748,14.236,16.2897,14.4903,14.4826,0.0325,,,, ,, , ,26.9472,,26.9447,,0.7142,83.6473,,,,7.2380E+02,,1.0000E-12,,6.4345,6.4351,0.8975,117.470,4.771,4.770,,,,,,,,,,,,
CalCOFI,2101RL,036,,2101_036u,23-Jan-2021 19:19:24,23-Jan-2021 11:19:24,33.65446,-118.97184,086.7 040.0,086.7,040.0,503.000,507.221,,6.4835,,6.4825,,6.4830,34.3046,,34.3104,34.3017,,34.3037,34.3071,0.3297,,0.3450,0.3332,0.3364,,0.3553,0.3409,0.3371,14.338,15.2692,14.5758,14.628,16.3965,14.9087,14.7423,0.0328,,,, ,, , ,26.9467,,26.9445,,0.7143,83.6464,,,,7.2428E+02,,1.0000E-12,,6.4374,6.4365,0.8975,117.502,4.804,4.901,,,,,,,,,,,,
CalCOFI,2101RL,036,,2101_036u,23-Jan-2021 19:19:25,23-Jan-2021 11:19:25,33.65446,-118.97184,086.7 040.0,086.7,040.0,502.000,506.211,,6.4871,,6.4852,,6.4862,34.3044,,34.3102,34.3014,,34.3034,34.3068,0.3384,,0.3541,0.3424,0.3332,,0.3519,0.3375,0.3400,14.714,15.6628,14.9715,14.488,16.8146,14.7593,14.8654,0.0332,,,, ,, , ,26.9461,,26.9439,,0.7159,83.6120,,,,7.2314E+02,,1.0000E-12,,6.4412,6.4393,0.8975,117.555,4.930,4.854,,,,,,,,,,,,
CalCOFI,2101RL,036,,2101_036u,23-Jan-2021 19:19:26,23-Jan-2021 11:19:26,33.65446,-118.97184,086.7 040.0,086.7,040.0,501.000,505.202,,6.5010,,6.4959,,6.4985,34.3033,,34.3091,34.3007,,34.3027,34.3059,0.3398,,0.3555,0.3438,0.3393,,0.3584,0.3440,0.3439,14.779,15.7309,15.0399,14.755,16.8869,15.0443,15.0421,0.0330,,,, ,, , ,26.9433,,26.9419,,0.7145,83.6415,,,,7.2143E+02,,1.0000E-12,,6.4551,6.4500,0.8975,117.811,4.954,4.945,,,,,,,,,,,,
CalCOFI,2101RL,036,,2101_036u,23-Jan-2021 19:19:27,23-Jan-2021 11:19:27,33.65446,-118.97184,086.7 040.0,086.7,040.0,500.000,504.192,,6.5164,,6.5116,,6.5140,34.3023,,34.3081,34.2995,,34.3015,34.3048,0.3363,,0.3519,0.3402,0.3320,,0.3506,0.3362,0.3382,14.625,15.5697,14.8778,14.438,16.7156,14.7059,14.7919,0.0329,,,, ,, , ,26.9405,,26.9389,,0.7148,83.6351,,,,7.2200E+02,,1.0000E-12,,6.4705,6.4657,0.8975,118.079,4.904,4.840,,,,,,,,,,,,
CalCOFI,2101RL,036,,2101_036u,23-Jan-2021 19:19:29,23-Jan-2021 11:19:29,33.65446,-118.97184,086.7 040.0,086.7,040.0,499.000,503.182,,6.5213,,6.5159,,6.5186,34.3021,,34.3079,34.2991,,34.3011,34.3045,0.3408,,0.3566,0.3449,0.3438,,0.3631,0.3488,0.3469,14.822,15.7759,15.0852,14.950,16.9347,15.2525,15.1689,0.0331,,,, ,, , ,26.9397,,26.9380,,0.7146,83.6402,,,,7.2463E+02,,1.0000E-12,,6.4755,6.4701,0.8975,118.144,4.970,5.012,,,,,,,,,,,,
CalCOFI,2101RL,036,,2101_036u,23-Jan-2021 19:19:30,23-Jan-2021 11:19:30,33.65446,-118.97184,086.7 040.0,086.7,040.0,498.000,502.173,,6.5199,,6.5137,,6.5168,34.3022,,34.3080,34.2996,,34.3016,34.3048,0.3391,,0.3548,0.3431,0.3394,,0.3585,0.3441,0.3436,14.746,15.6963,15.0052,14.762,16.8502,15.0518,15.0285,0.0331,,,, ,, , ,26.9399,,26.9387,,0.7147,83.6375,,,,7.2639E+02,,1.0000E-12,,6.4742,6.4680,0.8975,118.108,4.944,4.949,,,,,,,,,,,,
CalCOFI,2101RL,036,,2101_036u,23-Jan-2021 19:19:31,23-Jan-2021 11:19:31,33.65444,-118.97184,086.7 040.0,086.7,040.0,497.000,501.163,,6.5294,,6.5246,,6.5270,34.3013,,34.3071,34.2987,,34.3007,34.3039,0.3386,,0.3543,0.3426,0.3465,,0.3660,0.3517,0.3472,14.725,15.6743,14.9831,15.071,16.8268,15.3816,15.1824,0.0332,,,, ,, , ,26.9380,,26.9366,,0.7150,83.6315,,,,7.2674E+02,,1.0000E-12,,6.4838,6.4790,0.8975,118.288,4.939,5.054,,,,,,,,,,,,
CalCOFI,2101RL,036,,2101_036u,23-Jan-2021 19:19:32,23-Jan-2021 11:19:32,33.65444,-118.97184,086.7 040.0,086.7,040.0,496.000,500.154,,6.5317,,6.5313,,6.5315,34.3012,,34.3070,34.2982,,34.3002,34.3036,0.3451,,0.3611,0.3494,0.3420,,0.3612,0.3469,0.3482,15.006,15.9685,15.2788,14.872,17.1393,15.1692,15.2240,0.0331,,,, ,, , ,26.9376,,26.9353,,0.7147,83.6376,,,,7.2532E+02,,1.0000E-12,,6.4861,6.4857,0.8975,118.314,5.033,4.988,,,,,,,,,,,,
CalCOFI,2101RL,036,,2101_036u,23-Jan-2021 19:19:33,23-Jan-2021 11:19:33,33.65444,-118.97184,086.7 040.0,086.7,040.0,495.000,499.144,,6.5331,,6.5333,,6.5332,34.3010,,34.3068,34.2980,,34.3000,34.3034,0.3442,,0.3601,0.3485,0.3441,,0.3635,0.3492,0.3489,14.968,15.9287,15.2388,14.963,17.0971,15.2663,15.2526,0.0324,,,, ,, , ,26.9372,,26.9349,,0.7155,83.6199,,,,7.2535E+02,,1.0000E-12,,6.4877,6.4878,0.8975,118.332,5.020,5.019,,,,,,,,,,,,
CalCOFI,2101RL,036,,2101_036u,23-Jan-2021 19:19:34,23-Jan-2021 11:19:34,33.65444,-118.97183,086.7 040.0,086.7,040.0,494.000,498.134,,6.5340,,6.5328,,6.5334,34.3011,,34.3069,34.2980,,34.3000,34.3035,0.3415,,0.3573,0.3456,0.3436,,0.3629,0.3486,0.3471,14.853,15.8083,15.1178,14.942,16.9692,15.2439,15.1809,0.0323,,,, ,, , ,26.9372,,26.9349,,0.7150,83.6303,,,,7.2677E+02,,1.0000E-12,,6.4886,6.4874,0.8975,118.325,4.982,5.011,,,,,,,,,,,,
CalCOFI,2101RL,036,,2101_036u,23-Jan-2021 19:19:35,23-Jan-2021 11:19:35,33.65444,-118.97182,086.7 040.0,086.7,040.0,493.000,497.125,,6.5361,,6.5366,,6.5364,34.3008,,34.3066,34.2978,,34.2998,34.3032,0.3415,,0.3573,0.3456,0.3420,,0.3612,0.3469,0.3463,14.850,15.8052,15.1146,14.872,16.9658,15.1692,15.1419,0.0326,,,, ,, , ,26.9367,,26.9342,,0.7152,83.6268,,,,7.2804E+02,,1.0000E-12,,6.4908,6.4913,0.8975,118.360,4.981,4.989,,,,,,,,,,,,
CalCOFI,2101RL,036,,2101_036u,23-Jan-2021 19:19:36,23-Jan-2021 11:19:36,33.65444,-118.97182,086.7 040.0,086.7,040.0,492.000,496.115,,6.5397,,6.5393,,6.5395,34.3006,,34.3064,34.2975,,34.2995,34.3030,0.3448,,0.3608,0.3491,0.3450,,0.3644,0.3501,0.3496,14.995,15.9570,15.2672,15.003,17.1271,15.3090,15.2881,0.0323,,,, ,, , ,26.9361,,26.9336,,0.7156,83.6178,,,,7.2950E+02,,1.0000E-12,,6.4945,6.4941,0.8975,118.404,5.030,5.033,,,,,,,,,,,,
CalCOFI,2101RL,036,,2101_036u,23-Jan-2021 19:19:37,23-Jan-2021 11:19:37,33.65444,-118.97182,086.7 040.0,086.7,040.0,491.000,495.106,,6.5439,,6.5445,,6.5442,34.3003,,34.3061,34.2972,,34.2992,34.3027,0.3508,,0.3670,0.3554,0.3510,,0.3708,0.3565,0.3560,15.254,16.2281,15.5398,15.264,17.4151,15.5876,15.5637,0.0327,,,, ,, , ,26.9352,,26.9327,,0.7156,83.6180,,,,7.2838E+02,,1.0000E-12,,6.4987,6.4994,0.8975,118.473,5.118,5.121,,,,,,,,,,,,
CalCOFI,2101RL,036,,2101_036u,23-Jan-2021 19:19:38,23-Jan-2021 11:19:38,33.65444,-118.97182,086.7 040.0,086.7,040.0,490.000,494.096,,6.5455,,6.5464,,6.5460,34.3001,,34.3059,34.2970,,34.2990,34.3025,0.3458,,0.3618,0.3502,0.3528,,0.3727,0.3584,0.3543,15.040,16.0041,15.3146,15.341,17.1771,15.6698,15.4922,0.0335,,,, ,, , ,26.9349,,26.9323,,0.7157,83.6160,,,,7.2787E+02,,1.0000E-12,,6.5005,6.5013,0.8975,118.493,5.046,5.147,,,,,,,,,,,,
CalCOFI,2101RL,036,,2101_036u,23-Jan-2021 19:19:39,23-Jan-2021 11:19:39,33.65444,-118.97182,086.7 040.0,086.7,040.0,489.000,493.087,,6.5488,,6.5474,,6.5481,34.3000,,34.3058,34.2969,,34.2989,34.3024,0.3451,,0.3611,0.3494,0.3450,,0.3644,0.3501,0.3498,15.010,15.9727,15.2830,15.005,17.1438,15.3112,15.2971,0.0326,,,, ,, , ,26.9343,,26.9321,,0.7155,83.6211,,,,7.2880E+02,,1.0000E-12,,6.5038,6.5024,0.8975,118.533,5.036,5.034,,,,,,,,,,,,
CalCOFI,2101RL,036,,2101_036u,23-Jan-2021 19:19:41,23-Jan-2021 11:19:41,33.65444,-118.97182,086.7 040.0,086.7,040.0,488.000,492.077,,6.5511,,6.5509,,6.5510,34.2999,,34.3057,34.2967,,34.2987,34.3022,0.3451,,0.3611,0.3494,0.3468,,0.3663,0.3520,0.3507,15.007,15.9695,15.2799,15.080,17.1404,15.3912,15.3356,0.0323,,,, ,, , ,26.9339,,26.9314,,0.7148,83.6355,,,,7.3118E+02,,1.0000E-12,,6.5063,6.5060,0.8975,118.562,5.036,5.060,,,,,,,,,,,,
CalCOFI,2101RL,036,,2101_036u,23-Jan-2021 19:19:42,23-Jan-2021 11:19:42,33.65444,-118.97182,086.7 040.0,086.7,040.0,487.000,491.067,,6.5540,,6.5529,,6.5535,34.2994,,34.3052,34.2966,,34.2986,34.3019,0.3460,,0.3620,0.3504,0.3475,,0.3671,0.3528,0.3516,15.047,16.0114,15.3220,15.112,17.1849,15.4254,15.3737,0.0321,,,, ,, , ,26.9331,,26.9311,,0.7148,83.6346,,,,7.3201E+02,,1.0000E-12,,6.5092,6.5081,0.8975,118.619,5.049,5.071,,,,,,,,,,,,
CalCOFI,2101RL,036,,2101_036u,23-Jan-2021 19:19:43,23-Jan-2021 11:19:43,33.65444,-118.97182,086.7 040.0,086.7,040.0,486.000,490.058,,6.5588,,6.5580,,6.5584,34.2991,,34.3049,34.2961,,34.2981,34.3015,0.3458,,0.3618,0.3502,0.3507,,0.3705,0.3562,0.3532,15.040,16.0041,15.3146,15.251,17.1771,15.5738,15.4442,0.0330,,,, ,, , ,26.9322,,26.9300,,0.7156,83.6178,,,,7.3227E+02,,1.0000E-12,,6.5141,6.5133,0.8975,118.696,5.048,5.118,,,,,,,,,,,,
CalCOFI,2101RL,036,,2101_036u,23-Jan-2021 19:19:44,23-Jan-2021 11:19:44,33.65444,-118.97182,086.7 040.0,086.7,040.0,485.000,489.048,,6.5615,,6.5608,,6.5612,34.2987,,34.3045,34.2959,,34.2979,34.3012,0.3457,,0.3617,0.3501,0.3514,,0.3712,0.3569,0.3535,15.033,15.9967,15.3072,15.280,17.1693,15.6047,15.4560,0.0329,,,, ,, , ,26.9316,,26.9294,,0.7156,83.6180,,,,7.3340E+02,,1.0000E-12,,6.5169,6.5162,0.8975,118.743,5.045,5.128,,,,,,,,,,,,
CalCOFI,2101RL,036,,2101_036u,23-Jan-2021 19:19:45,23-Jan-2021 11:19:45,33.65444,-118.97182,086.7 040.0,086.7,040.0,484.000,488.039,,6.5616,,6.5617,,6.5617,34.2986,,34.3044,34.2958,,34.2978,34.3011,0.3517,,0.3680,0.3564,0.3470,,0.3665,0.3522,0.3543,15.296,16.2721,15.5840,15.090,17.4618,15.4019,15.4930,0.0331,,,, ,, , ,26.9315,,26.9292,,0.7156,83.6180,,,,7.3518E+02,,1.0000E-12,,6.5170,6.5172,0.8975,118.738,5.134,5.065,,,,,,,,,,,,
CalCOFI,2101RL,036,,2101_036u,23-Jan-2021 19:19:46,23-Jan-2021 11:19:46,33.65444,-118.97182,086.7 040.0,086.7,040.0,483.000,487.029,,6.5647,,6.5638,,6.5643,34.2985,,34.3043,34.2957,,34.2977,34.3010,0.3511,,0.3674,0.3557,0.3577,,0.3779,0.3637,0.3597,15.266,16.2406,15.5524,15.556,17.4284,15.8993,15.7259,0.0331,,,, ,, , ,26.9310,,26.9288,,0.7163,83.6042,,,,7.3526E+02,,1.0000E-12,,6.5203,6.5194,0.8975,118.775,5.124,5.221,,,,,,,,,,,,
CalCOFI,2101RL,036,,2101_036u,23-Jan-2021 19:19:47,23-Jan-2021 11:19:47,33.65444,-118.97181,086.7 040.0,086.7,040.0,482.000,486.020,,6.5706,,6.5700,,6.5703,34.2980,,34.3038,34.2951,,34.2971,34.3005,0.3484,,0.3645,0.3529,0.3492,,0.3689,0.3546,0.3538,15.153,16.1224,15.4335,15.188,17.3028,15.5065,15.4700,0.0326,,,, ,, , ,26.9298,,26.9276,,0.7171,83.5869,,,,7.3526E+02,,1.0000E-12,,6.5262,6.5256,0.8975,118.880,5.087,5.098,,,,,,,,,,,,
CalCOFI,2101RL,036,,2101_036u,23-Jan-2021 19:19:48,23-Jan-2021 11:19:48,33.65444,-118.97180,086.7 040.0,086.7,040.0,481.000,485.010,,6.5747,,6.5746,,6.5747,34.2975,,34.3033,34.2947,,34.2967,34.3000,0.3482,,0.3643,0.3527,0.3442,,0.3636,0.3493,0.3510,15.143,16.1119,15.4230,14.971,17.2917,15.2749,15.3490,0.0323,,,, ,, , ,26.9289,,26.9266,,0.7179,83.5709,,,,7.3465E+02,,1.0000E-12,,6.5304,6.5303,0.8975,118.955,5.084,5.026,,,,,,,,,,,,
CalCOFI,2101RL,036,,2101_036u,23-Jan-2021 19:19:49,23-Jan-2021 11:19:49,33.65444,-118.97180,086.7 040.0,086.7,040.0,480.000,484.001,,6.5793,,6.5806,,6.5800,34.2973,,34.3031,34.2941,,34.2961,34.2996,0.3481,,0.3642,0.3526,0.3560,,0.3761,0.3618,0.3572,15.139,16.1077,15.4188,15.480,17.2872,15.8182,15.6185,0.0325,,,, ,, , ,26.9281,,26.9253,,0.7181,83.5674,,,,7.3527E+02,,1.0000E-12,,6.5351,6.5364,0.8975,119.021,5.083,5.198,,,,,,,,,,,,
CalCOFI,2101RL,036,,2101_036u,23-Jan-2021 19:19:50,23-Jan-2021 11:19:50,33.65444,-118.97180,086.7 040.0,086.7,040.0,479.000,482.991,,6.5836,,6.5841,,6.5839,34.2970,,34.3028,34.2938,,34.2958,34.2993,0.3480,,0.3641,0.3525,0.3541,,0.3741,0.3598,0.3562,15.136,16.1046,15.4156,15.400,17.2839,15.7328,15.5742,0.0328,,,, ,, , ,26.9272,,26.9246,,0.7180,83.5686,,,,7.3625E+02,,1.0000E-12,,6.5394,6.5399,0.8975,119.091,5.083,5.171,,,,,,,,,,,,
CalCOFI,2101RL,036,,2101_036u,23-Jan-2021 19:19:51,23-Jan-2021 11:19:51,33.65444,-118.97181,086.7 040.0,086.7,040.0,478.000,481.982,,6.5875,,6.5875,,6.5875,34.2967,,34.3025,34.2936,,34.2956,34.2991,0.3480,,0.3641,0.3525,0.3512,,0.3710,0.3567,0.3546,15.132,16.1004,15.4114,15.272,17.2794,15.5962,15.5038,0.0334,,,, ,, , ,26.9265,,26.9240,,0.7184,83.5601,,,,7.3709E+02,,1.0000E-12,,6.5434,6.5435,0.8975,119.148,5.082,5.129,,,,,,,,,,,,
CalCOFI,2101RL,036,,2101_036u,23-Jan-2021 19:19:52,23-Jan-2021 11:19:52,33.65444,-118.97182,086.7 040.0,086.7,040.0,477.000,480.972,,6.5912,,6.5895,,6.5904,34.2965,,34.3023,34.2935,,34.2955,34.2989,0.3487,,0.3648,0.3532,0.3506,,0.3704,0.3561,0.3547,15.164,16.1339,15.4451,15.246,17.3150,15.5684,15.5068,0.0330,,,, ,, , ,26.9258,,26.9237,,0.7179,83.5705,,,,7.3961E+02,,1.0000E-12,,6.5472,6.5455,0.8975,119.200,5.093,5.120,,,,,,,,,,,,
CalCOFI,2101RL,036,,2101_036u,23-Jan-2021 19:19:54,23-Jan-2021 11:19:54,33.65443,-118.97182,086.7 040.0,086.7,040.0,476.000,479.963,,6.5811,,6.5864,,6.5838,34.2971,,34.3029,34.2947,,34.2967,34.2998,0.3546,,0.3710,0.3594,0.3526,,0.3725,0.3582,0.3588,15.422,16.4039,15.7166,15.336,17.6019,15.6645,15.6906,0.0334,,,, ,, , ,26.9276,,26.9250,,0.7178,83.5739,,,,7.4214E+02,,1.0000E-12,,6.5372,6.5425,0.8975,119.006,5.178,5.150,,,,,,,,,,,,
CalCOFI,2101RL,036,,2101_036u,23-Jan-2021 19:19:55,23-Jan-2021 11:19:55,33.65442,-118.97182,086.7 040.0,086.7,040.0,475.000,478.953,,6.5972,,6.5925,,6.5949,34.2960,,34.3018,34.2941,,34.2961,34.2990,0.3534,,0.3698,0.3582,0.3635,,0.3841,0.3699,0.3641,15.368,16.3474,15.6598,15.808,17.5419,16.1683,15.9141,0.0327,,,, ,, , ,26.9246,,26.9237,,0.7179,83.5707,,,,7.4265E+02,,1.0000E-12,,6.5534,6.5487,0.8975,119.288,5.162,5.309,,,,,,,,,,,,
CalCOFI,2101RL,036,,2101_036u,23-Jan-2021 19:19:56,23-Jan-2021 11:19:56,33.65442,-118.97182,086.7 040.0,086.7,040.0,474.000,477.944,,6.6056,,6.6047,,6.6052,34.2953,,34.3011,34.2925,,34.2945,34.2978,0.3602,,0.3769,0.3653,0.3507,,0.3705,0.3562,0.3608,15.666,16.6594,15.9734,15.252,17.8732,15.5748,15.7741,0.0326,,,, ,, , ,26.9229,,26.9208,,0.7190,83.5472,,,,7.4264E+02,,1.0000E-12,,6.5619,6.5610,0.8975,119.439,5.263,5.124,,,,,,,,,,,,
CalCOFI,2101RL,036,,2101_036u,23-Jan-2021 19:19:57,23-Jan-2021 11:19:57,33.65442,-118.97181,086.7 040.0,086.7,040.0,473.000,476.934,,6.6106,,6.6085,,6.6096,34.2950,,34.3008,34.2923,,34.2943,34.2976,0.3617,,0.3785,0.3669,0.3589,,0.3792,0.3649,0.3659,15.732,16.7285,16.0429,15.609,17.9466,15.9559,15.9994,0.0318,,,, ,, , ,26.9221,,26.9202,,0.7190,83.5473,,,,7.4387E+02,,1.0000E-12,,6.5670,6.5648,0.8975,119.515,5.286,5.244,,,,,,,,,,,,
CalCOFI,2101RL,036,,2101_036u,23-Jan-2021 19:19:58,23-Jan-2021 11:19:58,33.65442,-118.97180,086.7 040.0,086.7,040.0,472.000,475.925,,6.6215,,6.6180,,6.6198,34.2946,,34.3004,34.2920,,34.2940,34.2972,0.3673,,0.3843,0.3728,0.3638,,0.3844,0.3702,0.3715,15.972,16.9797,16.2954,15.820,18.2135,16.1812,16.2383,0.0313,,,, ,, , ,26.9202,,26.9186,,0.7190,83.5473,,,,7.4265E+02,,1.0000E-12,,6.5779,6.5744,0.8975,119.682,5.368,5.316,,,,,,,,,,,,
CalCOFI,2101RL,036,,2101_036u,23-Jan-2021 19:19:59,23-Jan-2021 11:19:59,33.65442,-118.97180,086.7 040.0,086.7,040.0,471.000,474.915,,6.6321,,6.6367,,6.6344,34.2938,,34.2996,34.2905,,34.2925,34.2961,0.3675,,0.3845,0.3730,0.3666,,0.3874,0.3732,0.3731,15.983,16.9912,16.3070,15.942,18.2258,16.3114,16.3092,0.0322,,,, ,, , ,26.9181,,26.9150,,0.7190,83.5473,,,,7.4524E+02,,1.0000E-12,,6.5886,6.5931,0.8975,119.875,5.373,5.359,,,,,,,,,,,,
CalCOFI,2101RL,036,,2101_036u,23-Jan-2021 19:19:59,23-Jan-2021 11:19:59,33.65442,-118.97180,086.7 040.0,086.7,040.0,470.000,473.906,,6.6480,,6.6504,,6.6492,34.2925,,34.2983,34.2896,,34.2916,34.2950,0.3676,,0.3846,0.3731,0.3677,,0.3885,0.3743,0.3737,15.986,16.9943,16.3102,15.991,18.2291,16.3637,16.3370,0.0334,,,, ,, , ,26.9150,,26.9124,,0.7190,83.5473,,,,7.4635E+02,,1.0000E-12,,6.6045,6.6069,0.8975,120.172,5.376,5.377,,,,,,,,,,,,
CalCOFI,2101RL,036,,2101_036u,23-Jan-2021 19:20:00,23-Jan-2021 11:20:00,33.65442,-118.97180,086.7 040.0,086.7,040.0,469.000,472.896,,6.6562,,6.6562,,6.6562,34.2919,,34.2977,34.2890,,34.2910,34.2944,0.3677,,0.3847,0.3732,0.3643,,0.3849,0.3707,0.3720,15.992,17.0006,16.3165,15.842,18.2358,16.2046,16.2606,0.0325,,,, ,, , ,26.9135,,26.9112,,0.7190,83.5473,,,,7.4557E+02,,1.0000E-12,,6.6128,6.6128,0.8975,120.309,5.379,5.328,,,,,,,,,,,,
CalCOFI,2101RL,036,,2101_036u,23-Jan-2021 19:20:01,23-Jan-2021 11:20:01,33.65442,-118.97180,086.7 040.0,086.7,040.0,468.000,471.887,,6.6609,,6.6605,,6.6607,34.2918,,34.2976,34.2888,,34.2908,34.2942,0.3686,,0.3857,0.3741,0.3686,,0.3895,0.3753,0.3747,16.029,17.0394,16.3554,16.029,18.2769,16.4043,16.3799,0.0327,,,, ,, , ,26.9128,,26.9104,,0.7190,83.5464,,,,7.4808E+02,,1.0000E-12,,6.6175,6.6171,0.8975,120.369,5.392,5.392,,,,,,,,,,,,
CalCOFI,2101RL,036,,2101_036u,23-Jan-2021 19:20:02,23-Jan-2021 11:20:02,33.65442,-118.97180,086.7 040.0,086.7,040.0,467.000,470.877,,6.6563,,6.6590,,6.6577,34.2923,,34.2981,34.2883,,34.2903,34.2942,0.3732,,0.3905,0.3790,0.3693,,0.3902,0.3760,0.3775,16.230,17.2498,16.5670,16.059,18.5004,16.4363,16.5017,0.0326,,,, ,, , ,26.9137,,26.9102,,0.7211,83.5047,,,,7.5017E+02,,1.0000E-12,,6.6131,6.6158,0.8975,120.256,5.459,5.401,,,,,,,,,,,,
CalCOFI,2101RL,036,,2101_036u,23-Jan-2021 19:20:04,23-Jan-2021 11:20:04,33.65442,-118.97180,086.7 040.0,086.7,040.0,466.000,469.868,,6.6645,,6.6568,,6.6607,34.2917,,34.2975,34.2892,,34.2912,34.2944,0.3789,,0.3965,0.3850,0.3770,,0.3984,0.3843,0.3847,16.477,17.5083,16.8269,16.395,18.7751,16.7949,16.8109,0.0325,,,, ,, , ,26.9121,,26.9112,,0.7187,83.5541,,,,7.5277E+02,,1.0000E-12,,6.6213,6.6136,0.8975,120.399,5.543,5.514,,,,,,,,,,,,
CalCOFI,2101RL,036,,2101_036u,23-Jan-2021 19:20:05,23-Jan-2021 11:20:05,33.65442,-118.97180,086.7 040.0,086.7,040.0,465.000,468.859,,6.6908,,6.6857,,6.6883,34.2896,,34.2954,34.2868,,34.2888,34.2921,0.3836,,0.4014,0.3899,0.3835,,0.4053,0.3912,0.3906,16.685,17.7261,17.0458,16.678,19.0064,17.0970,17.0714,0.0327,,,, ,, , ,26.9070,,26.9055,,0.7180,83.5678,,,,7.5411E+02,,1.0000E-12,,6.6476,6.6425,0.8975,120.899,5.616,5.613,,,,,,,,,,,,
CalCOFI,2101RL,036,,2101_036u,23-Jan-2021 19:20:06,23-Jan-2021 11:20:06,33.65442,-118.97180,086.7 040.0,086.7,040.0,464.000,467.849,,6.7048,,6.7059,,6.7054,34.2884,,34.2942,34.2853,,34.2873,34.2908,0.3849,,0.4027,0.3913,0.3870,,0.4090,0.3949,0.3931,16.740,17.7836,17.1037,16.830,19.0676,17.2593,17.1815,0.0328,,,, ,, , ,26.9041,,26.9016,,0.7179,83.5708,,,,7.5434E+02,,1.0000E-12,,6.6617,6.6627,0.8975,121.166,5.637,5.667,,,,,,,,,,,,